This is the latest recevied weather packets stored in our database for station/object CT8ACA-6. If no packets are shown the sender has not sent any weather packets the latest 10 day(s).
| Time | Temp. | Humidity | Pressure | Rain* | Wind** | Luminosity | Snow |
|---|---|---|---|---|---|---|---|
| 1787858836 | 23.89° C | 57% | 1031 hPa | 0 mm | - | - | - |
| 1787858237 | 23.89° C | 56% | 1031 hPa | 0 mm | - | - | - |
| 1787857636 | 24.44° C | 56% | 1031.5 hPa | 0 mm | - | - | - |
| 1787857036 | 25° C | 56% | 1031.5 hPa | 0 mm | - | - | - |
| 1787856436 | 25° C | 56% | 1032 hPa | 0 mm | - | - | - |
| 1787855835 | 25° C | 55% | 1032 hPa | 0 mm | - | - | - |
| 1787855236 | 25° C | 54% | 1031.9 hPa | 0 mm | - | - | - |
| 1787854636 | 25.56° C | 55% | 1031.9 hPa | 0 mm | - | - | - |
| 1787854035 | 26.11° C | 54% | 1032 hPa | 0 mm | - | - | - |
| 1787853435 | 26.11° C | 55% | 1032 hPa | 0 mm | - | - | - |
| 1787852836 | 26.67° C | 53% | 1031.5 hPa | 0 mm | - | - | - |
| 1787852235 | 27.22° C | 54% | 1031.5 hPa | 0 mm | - | - | - |
| 1787851635 | 28.33° C | 55% | 1030.9 hPa | 0 mm | - | - | - |
| 1787851035 | 28.33° C | 57% | 1030.9 hPa | 0 mm | - | - | - |
| 1787850434 | 28.33° C | 58% | 1030.6 hPa | 0 mm | - | - | - |
| 1787849835 | 27.78° C | 57% | 1030.6 hPa | 0 mm | - | - | - |
| 1787849235 | 27.22° C | 58% | 1030.3 hPa | 0 mm | - | - | - |
| 1787848634 | 26.67° C | 58% | 1030.3 hPa | 0 mm | - | - | - |
| 1787848034 | 26.67° C | 58% | 1030 hPa | 0 mm | - | - | - |
| 1787847434 | 26.67° C | 59% | 1030 hPa | 0 mm | - | - | - |
| 1787846835 | 26.67° C | 59% | 1030.1 hPa | 0 mm | - | - | - |
| 1787846234 | 26.67° C | 59% | 1030.1 hPa | 0 mm | - | - | - |
| 1787845634 | 26.11° C | 58% | 1030.6 hPa | 0 mm | - | - | - |
| 1787845034 | 25.56° C | 56% | 1030.6 hPa | 0 mm | - | - | - |
| 1787844434 | 26.67° C | 56% | 1030.1 hPa | 0 mm | - | - | - |
* Rain latest hour (hover to see other rain measurements)
** Current wind speed in m/s (hover to see current wind gust speed)